Weather History for Ottumwa, IA

Change the Weather History Date:

Wednesday, April 17, 2013

  Actual Average Record
Temperature  
Mean Temperature 48 °F 52 °F  
Max Temperature 56 °F 63 °F 86 °F (2004)
Min Temperature 39 °F 40 °F 24 °F (1907)
Degree Days  
Heating Degree Days 17 14  
Month to date heating degree days 325 285  
Since 1 July heating degree days 5863 5981  
Cooling Degree Days 0 0  
Month to date cooling degree days 0 0  
Year to date cooling degree days 0 1  
Moisture  
Dew Point 42 °F    
Average Humidity 84    
Maximum Humidity 96    
Minimum Humidity 71    
Precipitation  
Precipitation 4.88 in 0.11 in 4.88 in (2013)
Month to date precipitation 7.45 1.72  
Year to date precipitation 12.80 6.14  
Sea Level Pressure  
Sea Level Pressure 29.91 in    
Wind  
Wind Speed 17 mph (East)    
Max Wind Speed 31 mph    
Max Gust Speed 37 mph    
Visibility 5 miles    
Events Rain , Thunderstorm    
T = Trace of Precipitation, MM = Missing Value Source: NWS Daily Summary

Daily Weather History Graph

Daily Weather History Graph

Search for Another Location

Airport:

Trip Planner

Search our weather history database for the weather conditions in past years. The results will help you decide how hot, cold, wet, or windy it might be!

Date:

Astronomy

Apr. 17, 2013 Rise Set
Actual Time 6:27 AM CDT 7:52 PM CDT
Civil Twilight 5:58 AM CDT 8:20 PM CDT
Nautical Twilight 5:23 AM CDT 8:55 PM CDT
Astronomical Twilight 4:47 AM CDT 9:32 PM CDT
Moon 11:40 AM CDT (4/17) 1:31 AM CDT (4/17)
Length of Visible Light 14h 22m
Length of Day
13h 25m
Waxing Crescent, 42% of the Moon is Illuminated
Apr 17
Waxing Crescent
Apr 18
First Quarter
Apr 25
Full
May 2
Last Quarter
May 9
New

Hourly Weather History & Observations

Time (CDT) Temp. Windchill Dew Point Humidity Pressure Visibility Wind Dir Wind Speed Gust Speed Precip Events Conditions
12:53 AM 46.9 °F - 37.9 °F 71% 30.19 in 10.0 mi NE 9.2 mph - N/A   Overcast
1:53 AM 46.9 °F - 39.0 °F 74% 30.18 in 10.0 mi ENE 10.4 mph - N/A   Overcast
2:53 AM 46.0 °F 41.0 °F 39.0 °F 76% 30.14 in 10.0 mi ENE 10.4 mph - N/A   Overcast
3:18 AM 46.4 °F 41.1 °F 39.2 °F 76% 30.11 in 7.0 mi ENE 11.5 mph - 0.03 in Rain , Thunderstorm Heavy Thunderstorms and Rain
3:53 AM 45.0 °F 36.9 °F 39.9 °F 82% 30.08 in 6.0 mi ENE 20.7 mph - 0.10 in Rain , Thunderstorm Thunderstorms and Rain
4:04 AM 44.6 °F 38.8 °F 39.2 °F 81% 30.10 in 8.0 mi ENE 11.5 mph - 0.01 in Rain , Thunderstorm Light Thunderstorms and Rain
4:53 AM 45.0 °F 37.4 °F 41.0 °F 86% 30.09 in 9.0 mi East 18.4 mph - 0.03 in Rain , Thunderstorm Light Thunderstorms and Rain
5:39 AM 44.6 °F 37.4 °F 42.8 °F 93% 30.07 in 3.0 mi East 16.1 mph 21.9 mph 0.37 in Rain Heavy Rain
5:50 AM 44.6 °F 36.4 °F 41.0 °F 87% 30.07 in 7.0 mi East 20.7 mph 27.6 mph 0.38 in Rain , Thunderstorm Light Rain
5:53 AM 44.1 °F 34.8 °F 39.9 °F 85% 30.08 in 8.0 mi East 25.3 mph 31.1 mph 0.38 in Rain , Thunderstorm Light Rain
6:06 AM 42.8 °F 34.8 °F 39.2 °F 87% 30.09 in 5.0 mi ENE 17.3 mph 27.6 mph 0.04 in Rain , Thunderstorm Rain
6:34 AM 42.8 °F 35.1 °F 39.2 °F 87% 30.07 in 8.0 mi East 16.1 mph 31.1 mph 0.07 in Rain Light Rain
6:53 AM 43.0 °F 35.4 °F 39.9 °F 89% 30.10 in 7.0 mi NE 16.1 mph 20.7 mph 0.07 in   Overcast
7:07 AM 42.8 °F 35.1 °F 39.2 °F 87% 30.08 in 9.0 mi ENE 16.1 mph - N/A   Overcast
7:41 AM 42.8 °F 35.4 °F 37.4 °F 81% 30.06 in 8.0 mi ENE 15.0 mph 23.0 mph 0.00 in   Overcast
7:53 AM 42.1 °F 34.9 °F 37.9 °F 85% 30.05 in 6.0 mi ENE 13.8 mph 23.0 mph 0.00 in Rain Light Rain
8:16 AM 42.8 °F 35.4 °F 37.4 °F 81% 30.06 in 7.0 mi NE 15.0 mph 21.9 mph 0.00 in Thunderstorm Overcast
8:42 AM 41.0 °F 32.2 °F 37.4 °F 87% 30.02 in 1.5 mi East 18.4 mph 25.3 mph 0.15 in Rain , Thunderstorm Light Thunderstorms and Rain
8:53 AM 39.9 °F 31.1 °F 37.9 °F 93% 29.99 in 2.0 mi ENE 17.3 mph 25.3 mph 0.23 in Rain , Thunderstorm Heavy Thunderstorms and Rain
9:06 AM 39.2 °F 31.6 °F 37.4 °F 93% 30.01 in 3.0 mi ENE 12.7 mph 21.9 mph 0.02 in Rain , Thunderstorm Light Rain
9:11 AM 39.2 °F 30.2 °F 37.4 °F 93% 30.01 in 5.0 mi ENE 17.3 mph 21.9 mph 0.02 in Rain , Thunderstorm Light Rain
9:32 AM 39.2 °F 30.2 °F 37.4 °F 93% 29.99 in 4.0 mi East 17.3 mph - 0.02 in Rain Light Rain
9:44 AM 39.2 °F 29.8 °F 37.4 °F 93% 29.98 in 5.0 mi East 18.4 mph - 0.02 in Rain Light Rain
9:53 AM 39.9 °F 33.4 °F 37.9 °F 93% 30.04 in 7.0 mi East 10.4 mph 16.1 mph 0.02 in Thunderstorm Overcast
9:59 AM 41.0 °F 30.9 °F 37.4 °F 87% 30.14 in 8.0 mi WNW 24.2 mph 34.5 mph 0.01 in Thunderstorm Overcast
10:10 AM 41.0 °F 32.5 °F 37.4 °F 87% 30.11 in 2.5 mi NNW 17.3 mph 35.7 mph 0.04 in Rain , Thunderstorm Thunderstorms and Rain
10:17 AM 39.2 °F 30.2 °F 37.4 °F 93% 30.02 in 1.2 mi NE 17.3 mph 31.1 mph 0.12 in Rain , Thunderstorm Heavy Thunderstorms and Rain
10:25 AM 39.2 °F 30.2 °F 37.4 °F 93% 30.00 in 2.0 mi ENE 17.3 mph - 0.14 in Rain , Thunderstorm Light Thunderstorms and Rain
10:33 AM 39.2 °F 32.0 °F 37.4 °F 93% 30.06 in 4.0 mi North 11.5 mph - 0.14 in Rain , Thunderstorm Light Rain
10:44 AM 39.2 °F 29.6 °F 37.4 °F 93% 30.15 in 7.0 mi WNW 19.6 mph 24.2 mph 0.16 in Rain , Thunderstorm Light Thunderstorms and Rain
10:53 AM 39.9 °F 34.5 °F 37.9 °F 93% 30.12 in 2.5 mi East 8.1 mph 33.4 mph 0.26 in Rain , Thunderstorm Heavy Thunderstorms and Rain
10:56 AM 39.2 °F 33.6 °F 37.4 °F 93% 30.08 in 1.2 mi East 8.1 mph 26.5 mph 0.12 in Rain , Thunderstorm Heavy Thunderstorms and Rain
11:00 AM 39.2 °F 31.2 °F 37.4 °F 93% 30.07 in 0.8 mi ESE 13.8 mph - 0.24 in Rain , Thunderstorm Heavy Thunderstorms and Rain
11:06 AM 39.2 °F 30.2 °F 37.4 °F 93% 30.03 in 1.0 mi East 17.3 mph - 0.34 in Rain , Thunderstorm Heavy Thunderstorms and Rain
11:14 AM 39.2 °F 31.2 °F 37.4 °F 93% 30.02 in 3.0 mi East 13.8 mph - 0.35 in Rain , Thunderstorm Light Thunderstorms and Rain
11:53 AM 39.9 °F 31.8 °F 37.9 °F 93% 30.01 in 6.0 mi East 15.0 mph - 0.41 in Rain , Thunderstorm Light Thunderstorms and Rain
12:37 PM 41.0 °F 32.2 °F 39.2 °F 93% 29.94 in 10.0 mi ENE 18.4 mph 24.2 mph 0.07 in Rain Light Rain
12:53 PM 41.0 °F 31.6 °F 39.0 °F 93% 29.93 in 8.0 mi East 20.7 mph 26.5 mph 0.09 in Rain , Thunderstorm Thunderstorms and Rain
1:17 PM 41.0 °F 32.8 °F 39.2 °F 93% 29.96 in 5.0 mi ESE 16.1 mph - 0.03 in Rain , Thunderstorm Thunderstorms and Rain
1:28 PM 41.0 °F 32.5 °F 39.2 °F 93% 29.92 in 5.0 mi East 17.3 mph - 0.06 in Rain , Thunderstorm Light Rain
1:53 PM 42.1 °F 33.9 °F 39.9 °F 92% 29.93 in 10.0 mi ESE 17.3 mph - 0.07 in Rain Light Rain
2:00 PM 42.8 °F 34.5 °F 39.2 °F 87% 29.92 in 10.0 mi ESE 18.4 mph 26.5 mph 0.01 in Rain , Thunderstorm Light Rain
2:44 PM 42.8 °F 35.1 °F 41.0 °F 93% 29.85 in 10.0 mi East 16.1 mph 24.2 mph 0.06 in Rain , Thunderstorm Light Rain
2:53 PM 43.0 °F 35.7 °F 41.0 °F 93% 29.88 in 8.0 mi ESE 15.0 mph - 0.07 in Rain , Thunderstorm Light Thunderstorms and Rain
3:47 PM 42.8 °F 35.8 °F 42.8 °F 100% 29.83 in 1.8 mi East 13.8 mph - 0.15 in Rain , Thunderstorm Heavy Thunderstorms and Rain
3:53 PM 43.0 °F 34.8 °F 41.0 °F 93% 29.86 in 1.2 mi ESE 18.4 mph - 0.23 in Rain , Thunderstorm Heavy Thunderstorms and Rain
4:00 PM 42.8 °F 35.4 °F 42.8 °F 100% 29.84 in 2.5 mi ESE 15.0 mph 23.0 mph 0.01 in Rain , Thunderstorm Light Thunderstorms and Rain
4:08 PM 44.6 °F 38.1 °F 42.8 °F 93% 29.90 in 3.0 mi SSE 13.8 mph - 0.03 in Rain , Thunderstorm Thunderstorms and Rain
4:17 PM 44.6 °F 38.1 °F 42.8 °F 93% 29.83 in 2.0 mi East 13.8 mph - 0.14 in Rain , Thunderstorm Heavy Thunderstorms and Rain
4:30 PM 44.6 °F 38.1 °F 42.8 °F 93% 29.84 in 4.0 mi East 13.8 mph 19.6 mph 0.16 in Rain , Thunderstorm Thunderstorms and Rain
4:53 PM 44.1 °F 35.0 °F 42.1 °F 93% 29.83 in 4.0 mi ESE 24.2 mph 29.9 mph 0.22 in Rain , Thunderstorm Light Thunderstorms and Rain
5:01 PM 44.6 °F 36.1 °F 42.8 °F 93% 29.78 in 2.5 mi ESE 21.9 mph 29.9 mph 0.05 in Rain , Thunderstorm Heavy Thunderstorms and Rain
5:10 PM 44.6 °F 36.6 °F 42.8 °F 93% 29.75 in 2.5 mi East 19.6 mph 29.9 mph 0.09 in Rain , Thunderstorm Rain
5:12 PM 44.6 °F 36.6 °F 42.8 °F 93% 29.76 in 3.0 mi East 19.6 mph 28.8 mph 0.09 in Rain Rain
5:20 PM 44.6 °F 36.1 °F 42.8 °F 93% 29.74 in 6.0 mi East 21.9 mph 27.6 mph 0.10 in Rain , Thunderstorm Light Rain
5:29 PM 44.6 °F 36.9 °F 42.8 °F 93% 29.74 in 3.0 mi East 18.4 mph 28.8 mph 0.15 in Rain , Thunderstorm Thunderstorms and Rain
5:37 PM 44.6 °F 36.9 °F 44.6 °F 100% 29.72 in 2.0 mi East 18.4 mph - 0.24 in Rain , Thunderstorm Thunderstorms and Rain
5:47 PM 46.4 °F 39.0 °F 44.6 °F 93% 29.78 in 3.0 mi SE 19.6 mph - 0.27 in Rain , Thunderstorm Light Thunderstorms and Rain
5:53 PM 46.0 °F 39.0 °F 44.1 °F 93% 29.78 in 6.0 mi SE 17.3 mph 25.3 mph 0.28 in Rain , Thunderstorm Light Thunderstorms and Rain
6:20 PM 46.4 °F 38.5 °F 44.6 °F 93% 29.74 in 5.0 mi SE 21.9 mph 27.6 mph 0.10 in Rain Rain
6:27 PM 46.4 °F 39.8 °F 46.4 °F 100% 29.75 in 7.0 mi ESE 16.1 mph 27.6 mph N/A Rain , Thunderstorm Light Thunderstorms and Rain
6:45 PM 46.4 °F 40.4 °F 46.4 °F 100% 29.74 in 10.0 mi ESE 13.8 mph - 0.11 in Rain Light Rain
6:53 PM 48.0 °F - 46.0 °F 93% 29.76 in 10.0 mi ESE 19.6 mph 25.3 mph 0.12 in Rain , Thunderstorm Light Rain
7:08 PM 48.2 °F - 46.4 °F 93% 29.74 in 10.0 mi ESE 15.0 mph 23.0 mph 0.00 in Rain , Thunderstorm Light Thunderstorms and Rain
7:29 PM 48.2 °F - 46.4 °F 93% 29.75 in 7.0 mi NNW 9.2 mph - 0.04 in Rain , Thunderstorm Light Thunderstorms and Rain
7:41 PM 48.2 °F - 46.4 °F 93% 29.72 in 8.0 mi East 13.8 mph 20.7 mph 0.05 in Rain Light Rain
7:53 PM 48.0 °F - 46.0 °F 93% 29.71 in 9.0 mi ENE 11.5 mph - 0.05 in Rain Light Rain
8:11 PM 48.2 °F - 46.4 °F 93% 29.68 in 6.0 mi East 13.8 mph - 0.02 in Rain Light Rain
8:24 PM 48.2 °F - 46.4 °F 93% 29.72 in 6.0 mi Variable 4.6 mph - 0.02 in Rain , Thunderstorm Light Rain
8:39 PM 48.2 °F - 46.4 °F 93% 29.75 in 2.5 mi NNW 20.7 mph 35.7 mph 0.15 in Rain , Thunderstorm Heavy Thunderstorms and Rain
8:43 PM 51.8 °F - 48.2 °F 88% 29.80 in 1.8 mi WNW 16.1 mph 35.7 mph 0.24 in Rain , Thunderstorm Heavy Thunderstorms and Rain
8:53 PM 53.1 °F - 50.0 °F 89% 29.78 in 1.0 mi ENE 9.2 mph 36.8 mph 0.60 in Rain , Thunderstorm Heavy Thunderstorms and Rain
9:18 PM 51.8 °F - 48.2 °F 88% 29.77 in 2.0 mi North 16.1 mph - 0.63 in Rain , Thunderstorm Heavy Thunderstorms and Rain
9:32 PM 48.2 °F - 48.2 °F 100% 29.78 in 1.8 mi NNW 23.0 mph - 0.89 in Rain , Thunderstorm Heavy Thunderstorms and Rain
9:47 PM 46.4 °F 39.5 °F 46.4 °F 100% 29.80 in 3.0 mi NNW 17.3 mph - 1.07 in Rain , Thunderstorm Thunderstorms and Rain
9:53 PM 46.9 °F - 45.0 °F 93% 29.81 in 4.0 mi North 20.7 mph - 1.10 in Rain , Thunderstorm Heavy Thunderstorms and Rain
10:53 PM 46.9 °F - 45.0 °F 93% 29.72 in 7.0 mi NE 17.3 mph 24.2 mph 0.14 in Rain , Thunderstorm Thunderstorms and Rain
11:19 PM 46.4 °F 40.1 °F 46.4 °F 100% 29.69 in 6.0 mi ENE 15.0 mph - 0.06 in Rain Rain
11:32 PM 48.2 °F - 46.4 °F 93% 29.69 in 5.0 mi East 16.1 mph - 0.10 in Rain , Thunderstorm Thunderstorms and Rain
11:53 PM 48.0 °F - 46.0 °F 93% 29.64 in 4.0 mi East 20.7 mph 31.1 mph 0.17 in Rain , Thunderstorm Rain
11:56 PM 48.2 °F - 46.4 °F 93% 29.63 in 5.0 mi East 12.7 mph 31.1 mph 0.01 in Rain Rain